Hlavní strana
METAR-TAF:

METAR-TAF

Letiště :

Gatlinburg, Tennessee, Spojené státy americké

zeměpisná šířka: 35-51-28N, zeměpisná délka: 083-31-43W, výška: 309 m

Aktuální stav počasí

Zpráva byla vytvořena před 19 minutami, v 08:15 UTC
Severní vítr 5 kt
Teplota 8°C
Vlhkost vzduchu 100%
Tlak 1023 hPa
Viditelnost: 8.0 km
Zataženo ve výšce 400 ft
kouřmo

METAR: KGKT 190815Z AUTO 01005KT 5SM BR OVC004 08/08 A3022 RMK A01

Čas: 02:34 (08:34 UTC)


TAF: chybějící

Stav a předpovědi počasí z více než 4 000 letišť (zprávy METAR a TAF).

Červené a žluté tečky na mapě představují dostupné meteorologické stanice.

Když kurzor umístíte na tečku, zobrazí se název stanice.

Pak kliknutím zobrazíte stav a předpověď počasí.

Chcete-li změnit mapu, kliknutím na zelené tlačítko se znaménkem +mapu přiblížíte, kliknutím na zelené tlačítko se znaménkem – mapu oddálíte a kliknutím na zelené šipky přejdete na sousední mapy.


METAR-TAF: